TimeEDT,TemperatureF,Dew PointF,Humidity,Sea Level PressureIn,VisibilityMPH,Wind Direction,Wind SpeedMPH,Gust SpeedMPH,PrecipitationIn,Events,Conditions,WindDirDegrees,DateUTC
12:53 AM,46.9,33.1,59,30.22,10.0,NNW,8.1,-,N/A,,Overcast,340,2012-10-27 04:53:00
1:53 AM,46.9,33.1,59,30.21,10.0,NNW,9.2,-,N/A,,Overcast,340,2012-10-27 05:53:00
2:53 AM,46.9,35.1,63,30.20,10.0,North,10.4,-,N/A,,Overcast,350,2012-10-27 06:53:00
3:53 AM,46.0,35.1,66,30.19,10.0,North,9.2,-,N/A,,Overcast,350,2012-10-27 07:53:00
4:53 AM,45.0,34.0,65,30.18,10.0,NNW,8.1,-,N/A,,Mostly Cloudy,340,2012-10-27 08:53:00
5:53 AM,43.0,34.0,71,30.17,10.0,NNW,10.4,-,N/A,,Mostly Cloudy,340,2012-10-27 09:53:00
6:53 AM,42.1,34.0,73,30.18,10.0,NNW,9.2,-,N/A,,Mostly Cloudy,330,2012-10-27 10:53:00
7:53 AM,42.1,33.1,70,30.19,10.0,NNW,11.5,-,N/A,,Mostly Cloudy,330,2012-10-27 11:53:00
8:31 AM,42.8,32.0,66,30.19,10.0,NNW,9.2,-,N/A,,Overcast,340,2012-10-27 12:31:00
8:53 AM,42.1,32.0,67,30.21,10.0,NNW,9.2,-,N/A,,Overcast,330,2012-10-27 12:53:00
9:11 AM,42.8,32.0,66,30.19,10.0,NNW,8.1,-,N/A,,Mostly Cloudy,340,2012-10-27 13:11:00
9:53 AM,43.0,34.0,71,30.20,10.0,NNW,10.4,-,N/A,,Mostly Cloudy,330,2012-10-27 13:53:00
10:53 AM,46.9,36.0,66,30.21,10.0,North,11.5,-,N/A,,Mostly Cloudy,350,2012-10-27 14:53:00
11:53 AM,51.1,37.0,59,30.19,10.0,North,13.8,19.6,N/A,,Mostly Cloudy,350,2012-10-27 15:53:00
12:53 PM,53.1,36.0,52,30.18,10.0,North,15.0,21.9,N/A,,Overcast,350,2012-10-27 16:53:00
1:53 PM,53.1,34.0,48,30.16,10.0,North,16.1,19.6,N/A,,Overcast,350,2012-10-27 17:53:00
2:53 PM,55.0,34.0,45,30.14,10.0,North,13.8,-,N/A,,Mostly Cloudy,360,2012-10-27 18:53:00
3:53 PM,52.0,30.0,43,30.14,10.0,North,11.5,-,N/A,,Mostly Cloudy,350,2012-10-27 19:53:00
4:53 PM,53.1,30.9,43,30.14,10.0,NNE,9.2,-,N/A,,Scattered Clouds,20,2012-10-27 20:53:00
5:53 PM,51.8,30.2,44,30.14,10.0,North,11.5,-,N/A,,Scattered Clouds,360,2012-10-27 21:53:00
6:53 PM,48.0,30.9,52,30.18,10.0,NNE,12.7,20.7,N/A,,Scattered Clouds,20,2012-10-27 22:53:00
7:53 PM,46.0,30.9,56,30.20,10.0,North,12.7,20.7,N/A,,Scattered Clouds,10,2012-10-27 23:53:00
8:53 PM,44.1,30.0,58,30.22,10.0,North,9.2,-,N/A,,Scattered Clouds,10,2012-10-28 00:53:00
9:53 PM,43.0,30.0,60,30.22,10.0,NNW,9.2,-,N/A,,Partly Cloudy,330,2012-10-28 01:53:00
10:53 PM,42.1,30.9,65,30.22,10.0,NNW,8.1,-,N/A,,Partly Cloudy,340,2012-10-28 02:53:00
11:53 PM,41.0,30.2,65,30.20,10.0,NNW,8.1,-,N/A,,Scattered Clouds,340,2012-10-28 03:53:00